BLOCK DM-SL R/B, 55507

Orbit data source: Space-Track

BLOCK DM-SL R/B, 55507 is space debris in GEO originally from a launch on Sun, 05 Feb 2023 UTC launched from the Tyuratam Missile And Space Complex (TTMTR). Debris objects in space refer to the collection of defunct objects orbiting the Earth. Examples of debris include non-operational satellites, rocket bodies, and fragments generated from explosions, collisions, or faulty payload assembly.

Not visible in the next 10 days
Identifier
55507, 2023-016B
Orbit
GEO
Country
Flag of CISCIS
Related business
Manufacturer
RKKE
Mission
Spacecraft
Bus & Motor
BLOK DM2, 11D58M
Mass
2,440 kg wet, 2,440 kg dry
Launch date (UTC)
2023-02-05 (3 years ago)
Launch vehicle
Unknown
Launch site
Tyuratam Missile And Space Complex (TTMTR)
Object type
Payload
Rocket body
Debris
Shape & HBR
Cyl, 3.5 m
Radar Cross Section
26.008 m², Large (>1 m²)

Expand to show TLE details & history
Last TLE update: 20 hours ago

TLE from 20 hours ago
0 BLOCK DM-SL R/B
1 55507U 23016B   25258.88868061 -.00000089  00000-0  00000-0 0  9999
2 55507   1.9516  83.5500 0091899 237.4210 122.2451  1.03219128  9847
Epoch: 2025-09-15T21:19Z
TLE epoch observation values (Epoch: 2025-09-15T21:19:42.004Z)
Latitude
Longitude
129.08959°
Altitude
35,184.217 km
Speed
3.089 km/s
True Right ascension
05h 36m 24s
True Declination
0° 00' 00"
Sunlit
Object was in daylight at epoch
Visualization orbit readout
Latitude
Unknown
Longitude
Unknown
Altitude
Unknown
Speed
Unknown
Apparent Right ascension
Unknown
Apparent Declination
Unknown
Sunlit
N/A
Visualization observer readout
Local Sidereal Time
10:25:55
Azimuth
Unknown
Elevation
Unknown
Doppler factor
Unknown
Orbital elements
Apogee altitude
35,361.248 km
Perigee altitude
34,601.072 km
Semi-major axis
41,359.297 km
Eccentricity
0.00919
Inclination
1.9516°
RAAN
83.55°
Arg. of periapsis
237.421°
True anomaly
123.13031°
Mean anomaly
122.2451°
Eccentric anomaly
122.68825°
Mean motion
0.25804 °/min
Orbital period
1,395.14 mins
BSTAR
0
Loading maneuver chart data...
Computing Atmospheric mass density...
Loading historical data...
Loading historical data...
Loading historical data...
Loading historical data...
Loading historical data...
Loading historical data...
Loading historical data...
Other satellites on launch #16 in the year 2023 (2023-02-05 UTC)

Documentation

Showing up to 5 results
|